| time (UTC) | temp C | wind direction | speed KPH | gust KPH | rain 1hr cm | rain 24hr cm | rain mn cm | humidity % | barometer mb |
| 20260504081646 | 21 | 138 | 9.7 | 16.1 | 0.00 | 0.00 | 0.00 | 44 | 991.3 |
| 20260504081246 | 21 | 116 | 6.4 | 12.9 | 0.00 | 0.00 | 0.00 | 45 | 991.2 |
| 20260504080844 | 21 | 167 | 8.0 | 14.5 | 0.00 | 0.00 | 0.00 | 44 | 991.2 |
| 20260504080513 | 21 | 167 | 6.4 | 12.9 | 0.00 | 0.00 | 0.00 | 44 | 991.2 |
| 20260504080441 | 21 | 115 | 3.2 | 8.0 | 0.00 | 0.00 | 0.00 | 44 | 991.2 |
| 20260504060133 | 17 | 111 | 3.2 | 9.7 | 0.00 | 0.00 | 0.00 | 47 | 991.0 |
| 20260504050402 | 16 | 120 | 4.8 | 9.7 | 0.00 | 0.00 | 0.00 | 48 | 990.6 |
| 20260504050003 | 16 | 141 | 6.4 | 11.3 | 0.00 | 0.00 | 0.00 | 48 | 990.6 |
| 20260504045602 | 16 | 136 | 3.2 | 9.7 | 0.00 | 0.00 | 0.00 | 49 | 990.5 |
| 20260504045202 | 15 | 126 | 4.8 | 9.7 | 0.00 | 0.00 | 0.00 | 49 | 990.5 |
| 20260504044800 | 15 | 118 | 4.8 | 8.0 | 0.00 | 0.00 | 0.00 | 49 | 990.5 |
| 20260504044629 | 15 | 136 | 6.4 | 14.5 | 0.00 | 0.00 | 0.00 | 49 | 990.4 |
| 20260504044400 | 15 | 124 | 6.4 | 12.9 | 0.00 | 0.00 | 0.00 | 49 | 990.4 |
| 20260504044000 | 15 | 136 | 6.4 | 14.5 | 0.00 | 0.00 | 0.00 | 49 | 990.4 |
| 20260504043157 | 15 | 120 | 6.4 | 12.9 | 0.00 | 0.00 | 0.00 | 49 | 990.4 |
| 20260504042755 | 15 | 115 | 6.4 | 12.9 | 0.00 | 0.00 | 0.00 | 49 | 990.4 |
| 20260504042627 | 15 | 122 | 6.4 | 11.3 | 0.00 | 0.00 | 0.00 | 49 | 990.4 |
| 20260504042355 | 15 | 122 | 6.4 | 11.3 | 0.00 | 0.00 | 0.00 | 49 | 990.4 |
| 20260504041955 | 15 | 118 | 6.4 | 11.3 | 0.00 | 0.00 | 0.00 | 49 | 990.3 |
| 20260504041555 | 15 | 131 | 8.0 | 11.3 | 0.00 | 0.00 | 0.00 | 49 | 990.3 |
| 20260504041155 | 15 | 127 | 4.8 | 8.0 | 0.00 | 0.00 | 0.00 | 49 | 990.3 |
| 20260504040753 | 14 | 131 | 4.8 | 9.7 | 0.00 | 0.00 | 0.00 | 50 | 990.3 |
| 20260504040353 | 14 | 127 | 4.8 | 8.0 | 0.00 | 0.00 | 0.00 | 50 | 990.3 |
| 20260504035953 | 14 | 111 | 4.8 | 14.5 | 0.00 | 0.00 | 0.00 | 50 | 990.3 |
| 20260504035546 | 14 | 116 | 4.8 | 11.3 | 0.00 | 0.00 | 0.00 | 50 | 990.3 |
| 20260504035145 | 14 | 112 | 6.4 | 11.3 | 0.00 | 0.00 | 0.00 | 50 | 990.3 |
| 20260504034742 | 14 | 128 | 4.8 | 8.0 | 0.00 | 0.00 | 0.00 | 50 | 990.3 |
| 20260504034341 | 14 | 122 | 8.0 | 12.9 | 0.00 | 0.00 | 0.00 | 50 | 990.3 |
| 20260504033941 | 14 | 117 | 4.8 | 9.7 | 0.00 | 0.00 | 0.00 | 49 | 990.3 |
| 20260504033541 | 14 | 117 | 4.8 | 8.0 | 0.00 | 0.00 | 0.00 | 49 | 990.3 |
| 20260504033141 | 14 | 120 | 6.4 | 12.9 | 0.00 | 0.00 | 0.00 | 50 | 990.2 |
| 20260504032337 | 14 | 135 | 6.4 | 12.9 | 0.00 | 0.00 | 0.00 | 49 | 990.3 |
| 20260504031937 | 14 | 121 | 8.0 | 14.5 | 0.00 | 0.00 | 0.00 | 49 | 990.2 |
| 20260504031537 | 14 | 132 | 8.0 | 19.3 | 0.00 | 0.00 | 0.00 | 49 | 990.3 |
| 20260504031136 | 14 | 141 | 8.0 | 14.5 | 0.00 | 0.00 | 0.00 | 49 | 990.3 |
| 20260504030735 | 14 | 131 | 6.4 | 16.1 | 0.00 | 0.00 | 0.00 | 49 | 990.3 |
| 20260504030334 | 14 | 143 | 6.4 | 14.5 | 0.00 | 0.00 | 0.00 | 49 | 990.3 |
| 20260504025935 | 14 | 124 | 4.8 | 8.0 | 0.00 | 0.00 | 0.00 | 49 | 990.3 |
| 20260504025535 | 14 | 131 | 8.0 | 17.7 | 0.00 | 0.00 | 0.00 | 49 | 990.3 |
| 20260504025135 | 14 | 131 | 6.4 | 11.3 | 0.00 | 0.00 | 0.00 | 49 | 990.4 |
| 20260504024732 | 14 | 131 | 6.4 | 9.7 | 0.00 | 0.00 | 0.00 | 48 | 990.3 |
| 20260504024332 | 14 | 124 | 6.4 | 9.7 | 0.00 | 0.00 | 0.00 | 48 | 990.3 |
| 20260504023932 | 14 | 128 | 6.4 | 9.7 | 0.00 | 0.00 | 0.00 | 48 | 990.3 |
| 20260504023532 | 14 | 124 | 6.4 | 12.9 | 0.00 | 0.00 | 0.00 | 48 | 990.3 |
| 20260504023353 | 14 | 126 | 8.0 | 12.9 | 0.00 | 0.00 | 0.00 | 48 | 990.4 |
| 20260504023132 | 14 | 126 | 8.0 | 12.9 | 0.00 | 0.00 | 0.00 | 48 | 990.4 |
| 20260504022730 | 14 | 130 | 8.0 | 16.1 | 0.00 | 0.00 | 0.00 | 48 | 990.4 |
| 20260504022542 | 14 | 136 | 9.7 | 16.1 | 0.00 | 0.00 | 0.00 | 48 | 990.4 |
| 20260504022330 | 14 | 136 | 9.7 | 16.1 | 0.00 | 0.00 | 0.00 | 48 | 990.4 |
| 20260504021930 | 14 | 130 | 6.4 | 14.5 | 0.00 | 0.00 | 0.00 | 48 | 990.4 |
| 20260504021528 | 14 | 134 | 8.0 | 12.9 | 0.00 | 0.00 | 0.00 | 48 | 990.4 |
| 20260504021128 | 14 | 123 | 9.7 | 17.7 | 0.00 | 0.00 | 0.00 | 48 | 990.5 |
| 20260504020725 | 14 | 127 | 8.0 | 17.7 | 0.00 | 0.00 | 0.00 | 48 | 990.5 |
| 20260504020325 | 14 | 132 | 6.4 | 9.7 | 0.00 | 0.00 | 0.00 | 48 | 990.5 |
| 20260504015925 | 14 | 131 | 9.7 | 16.1 | 0.00 | 0.00 | 0.00 | 48 | 990.6 |
| 20260504015525 | 14 | 135 | 6.4 | 12.9 | 0.00 | 0.00 | 0.00 | 48 | 990.5 |
| 20260504015207 | 14 | 131 | 4.8 | 9.7 | 0.00 | 0.00 | 0.00 | 47 | 990.5 |
| 20260504015126 | 14 | 131 | 4.8 | 9.7 | 0.00 | 0.00 | 0.00 | 47 | 990.5 |
| 20260504014724 | 14 | 116 | 8.0 | 19.3 | 0.00 | 0.00 | 0.00 | 47 | 990.5 |
| 20260504014324 | 14 | 123 | 8.0 | 11.3 | 0.00 | 0.00 | 0.00 | 47 | 990.5 |
| 20260504013924 | 14 | 121 | 6.4 | 11.3 | 0.00 | 0.00 | 0.00 | 47 | 990.5 |
| 20260504013600 | 14 | 131 | 6.4 | 19.3 | 0.00 | 0.00 | 0.00 | 47 | 990.5 |
| 20260504013524 | 14 | 131 | 6.4 | 19.3 | 0.00 | 0.00 | 0.00 | 47 | 990.5 |
| 20260504013124 | 14 | 124 | 6.4 | 12.9 | 0.00 | 0.00 | 0.00 | 47 | 990.6 |
| 20260504012714 | 14 | 135 | 6.4 | 12.9 | 0.00 | 0.00 | 0.00 | 47 | 990.6 |
| 20260504012313 | 15 | 137 | 6.4 | 14.5 | 0.00 | 0.00 | 0.00 | 47 | 990.7 |
| 20260504011913 | 15 | 121 | 6.4 | 11.3 | 0.00 | 0.00 | 0.00 | 47 | 990.7 |
| 20260504011512 | 15 | 131 | 6.4 | 14.5 | 0.00 | 0.00 | 0.00 | 47 | 990.7 |
| 20260504011112 | 15 | 129 | 4.8 | 11.3 | 0.00 | 0.00 | 0.00 | 47 | 990.7 |
| 20260504010710 | 15 | 127 | 6.4 | 11.3 | 0.00 | 0.00 | 0.00 | 47 | 990.7 |
| 20260504010308 | 15 | 137 | 6.4 | 14.5 | 0.00 | 0.00 | 0.00 | 46 | 990.7 |
| 20260504010050 | 15 | 147 | 4.8 | 9.7 | 0.00 | 0.00 | 0.00 | 46 | 990.7 |
| 20260504005908 | 15 | 147 | 4.8 | 9.7 | 0.00 | 0.00 | 0.00 | 46 | 990.7 |
| 20260504005508 | 15 | 140 | 4.8 | 8.0 | 0.00 | 0.00 | 0.00 | 46 | 990.7 |
| 20260504005300 | 15 | 135 | 6.4 | 12.9 | 0.00 | 0.00 | 0.00 | 46 | 990.7 |
| 20260504005108 | 15 | 135 | 6.4 | 12.9 | 0.00 | 0.00 | 0.00 | 46 | 990.7 |
| 20260504004706 | 15 | 144 | 6.4 | 12.9 | 0.00 | 0.00 | 0.00 | 46 | 990.7 |
| 20260504004643 | 15 | 134 | 8.0 | 12.9 | 0.00 | 0.00 | 0.00 | 46 | 990.7 |
| 20260504004306 | 15 | 130 | 8.0 | 12.9 | 0.00 | 0.00 | 0.00 | 46 | 990.7 |
| 20260504004240 | 15 | 142 | 6.4 | 9.7 | 0.00 | 0.00 | 0.00 | 46 | 990.7 |
| 20260504003906 | 15 | 134 | 8.0 | 14.5 | 0.00 | 0.00 | 0.00 | 46 | 990.7 |
| 20260504003506 | 15 | 134 | 8.0 | 12.9 | 0.00 | 0.00 | 0.00 | 46 | 990.7 |
| 20260504003106 | 15 | 142 | 6.4 | 9.7 | 0.00 | 0.00 | 0.00 | 46 | 990.7 |
| 20260504003054 | 15 | 135 | 4.8 | 12.9 | 0.00 | 0.00 | 0.00 | 46 | 990.8 |
| 20260504003045 | 15 | 125 | 8.0 | 11.3 | 0.00 | 0.00 | 0.00 | 46 | 990.7 |
| 20260504002704 | 15 | 135 | 4.8 | 12.9 | 0.00 | 0.00 | 0.00 | 46 | 990.8 |
| 20260504002304 | 15 | 132 | 6.4 | 9.7 | 0.00 | 0.00 | 0.00 | 46 | 990.7 |
| 20260504001904 | 15 | 125 | 8.0 | 11.3 | 0.00 | 0.00 | 0.00 | 46 | 990.7 |
| 20260504001504 | 15 | 141 | 6.4 | 14.5 | 0.00 | 0.00 | 0.00 | 46 | 990.7 |
| 20260504001104 | 15 | 136 | 6.4 | 11.3 | 0.00 | 0.00 | 0.00 | 46 | 990.7 |
| 20260504000702 | 15 | 132 | 4.8 | 12.9 | 0.00 | 0.00 | 0.00 | 46 | 990.7 |
| 20260504000302 | 15 | 139 | 6.4 | 14.5 | 0.00 | 0.00 | 0.00 | 46 | 990.8 |
| 20260503235902 | 15 | 138 | 6.4 | 11.3 | 0.00 | 0.00 | 0.00 | 46 | 990.8 |
| 20260503235740 | 15 | 120 | 4.8 | 9.7 | 0.00 | 0.00 | 0.00 | 46 | 990.8 |
| 20260503235500 | 15 | 120 | 4.8 | 9.7 | 0.00 | 0.00 | 0.00 | 46 | 990.8 |
| 20260503235211 | 15 | 130 | 6.4 | 9.7 | 0.00 | 0.00 | 0.00 | 46 | 990.9 |
| 20260503235101 | 15 | 122 | 6.4 | 12.9 | 0.00 | 0.00 | 0.00 | 46 | 990.9 |
| 20260503234658 | 15 | 130 | 6.4 | 9.7 | 0.00 | 0.00 | 0.00 | 46 | 990.9 |
| 20260503234426 | 15 | 135 | 6.4 | 12.9 | 0.00 | 0.00 | 0.00 | 46 | 990.9 |
| 20260503234258 | 15 | 135 | 6.4 | 12.9 | 0.00 | 0.00 | 0.00 | 46 | 990.9 |
| 20260503233858 | 15 | 124 | 4.8 | 8.0 | 0.00 | 0.00 | 0.00 | 45 | 990.9 |
| 20260503233458 | 15 | 131 | 6.4 | 11.3 | 0.00 | 0.00 | 0.00 | 45 | 991.0 |
| 20260503233329 | 16 | 149 | 4.8 | 12.9 | 0.00 | 0.00 | 0.00 | 45 | 990.9 |
| 20260503233058 | 16 | 149 | 4.8 | 12.9 | 0.00 | 0.00 | 0.00 | 45 | 990.9 |
| 20260503232741 | 16 | 135 | 8.0 | 16.1 | 0.00 | 0.00 | 0.00 | 45 | 991.0 |
| 20260503232656 | 16 | 135 | 8.0 | 16.1 | 0.00 | 0.00 | 0.00 | 45 | 991.0 |
| 20260503232256 | 16 | 136 | 6.4 | 9.7 | 0.00 | 0.00 | 0.00 | 45 | 991.0 |
| 20260503231856 | 16 | 152 | 6.4 | 14.5 | 0.00 | 0.00 | 0.00 | 45 | 991.0 |
| 20260503231456 | 16 | 139 | 8.0 | 12.9 | 0.00 | 0.00 | 0.00 | 45 | 991.0 |
| 20260503231056 | 16 | 144 | 9.7 | 16.1 | 0.00 | 0.00 | 0.00 | 45 | 991.0 |
| 20260503231027 | 16 | 144 | 8.0 | 14.5 | 0.00 | 0.00 | 0.00 | 45 | 991.1 |
| 20260503230654 | 16 | 144 | 8.0 | 14.5 | 0.00 | 0.00 | 0.00 | 45 | 991.1 |
| 20260503230254 | 16 | 142 | 8.0 | 19.3 | 0.00 | 0.00 | 0.00 | 45 | 991.1 |
| 20260503230055 | 16 | 144 | 8.0 | 16.1 | 0.00 | 0.00 | 0.00 | 45 | 991.1 |
| 20260503225854 | 16 | 144 | 8.0 | 16.1 | 0.00 | 0.00 | 0.00 | 45 | 991.1 |
| 20260503225447 | 16 | 138 | 9.7 | 12.9 | 0.00 | 0.00 | 0.00 | 45 | 991.1 |
| 20260503225122 | 16 | 163 | 6.4 | 11.3 | 0.00 | 0.00 | 0.00 | 45 | 991.1 |
| 20260503225046 | 16 | 163 | 6.4 | 11.3 | 0.00 | 0.00 | 0.00 | 45 | 991.1 |
| 20260503224716 | 16 | 154 | 6.4 | 12.9 | 0.00 | 0.00 | 0.00 | 45 | 991.2 |
| 20260503224240 | 16 | 141 | 6.4 | 14.5 | 0.00 | 0.00 | 0.00 | 45 | 991.2 |
| 20260503224016 | 16 | 145 | 8.0 | 17.7 | 0.00 | 0.00 | 0.00 | 44 | 991.2 |
| 20260503223840 | 16 | 145 | 8.0 | 17.7 | 0.00 | 0.00 | 0.00 | 44 | 991.2 |
| 20260503223715 | 16 | 165 | 6.4 | 12.9 | 0.00 | 0.00 | 0.00 | 44 | 991.2 |
| 20260503223440 | 16 | 165 | 6.4 | 12.9 | 0.00 | 0.00 | 0.00 | 44 | 991.2 |
| 20260503223040 | 16 | 147 | 4.8 | 9.7 | 0.00 | 0.00 | 0.00 | 44 | 991.2 |
| 20260503222638 | 16 | 153 | 6.4 | 16.1 | 0.00 | 0.00 | 0.00 | 44 | 991.2 |
| 20260503222238 | 16 | 153 | 9.7 | 16.1 | 0.00 | 0.00 | 0.00 | 44 | 991.2 |
| 20260503221838 | 16 | 150 | 8.0 | 11.3 | 0.00 | 0.00 | 0.00 | 44 | 991.2 |
| 20260503221438 | 16 | 148 | 6.4 | 11.3 | 0.00 | 0.00 | 0.00 | 44 | 991.2 |
| 20260503221038 | 16 | 141 | 6.4 | 12.9 | 0.00 | 0.00 | 0.00 | 44 | 991.2 |
| 20260503220636 | 16 | 149 | 8.0 | 12.9 | 0.00 | 0.00 | 0.00 | 44 | 991.2 |
| 20260503220540 | 17 | 136 | 8.0 | 14.5 | 0.00 | 0.00 | 0.00 | 44 | 991.2 |
| 20260503220236 | 17 | 136 | 8.0 | 14.5 | 0.00 | 0.00 | 0.00 | 44 | 991.2 |
| 20260503220009 | 17 | 137 | 8.0 | 16.1 | 0.00 | 0.00 | 0.00 | 44 | 991.3 |
| 20260503215836 | 17 | 137 | 8.0 | 16.1 | 0.00 | 0.00 | 0.00 | 44 | 991.3 |
| 20260503215638 | 17 | 141 | 6.4 | 14.5 | 0.00 | 0.00 | 0.00 | 44 | 991.3 |
| 20260503215437 | 17 | 141 | 6.4 | 14.5 | 0.00 | 0.00 | 0.00 | 44 | 991.3 |
| 20260503215037 | 17 | 138 | 6.4 | 11.3 | 0.00 | 0.00 | 0.00 | 44 | 991.3 |
| 20260503214940 | 17 | 145 | 9.7 | 22.5 | 0.00 | 0.00 | 0.00 | 44 | 991.3 |
| 20260503214635 | 17 | 145 | 6.4 | 11.3 | 0.00 | 0.00 | 0.00 | 44 | 991.3 |
| 20260503214235 | 17 | 145 | 9.7 | 22.5 | 0.00 | 0.00 | 0.00 | 44 | 991.3 |
| 20260503213835 | 17 | 136 | 6.4 | 12.9 | 0.00 | 0.00 | 0.00 | 45 | 991.3 |
| 20260503213432 | 17 | 152 | 9.7 | 17.7 | 0.00 | 0.00 | 0.00 | 45 | 991.3 |
| 20260503213032 | 17 | 146 | 4.8 | 16.1 | 0.00 | 0.00 | 0.00 | 45 | 991.3 |
| 20260503212630 | 17 | 161 | 4.8 | 11.3 | 0.00 | 0.00 | 0.00 | 45 | 991.3 |
| 20260503212230 | 17 | 133 | 4.8 | 14.5 | 0.00 | 0.00 | 0.00 | 45 | 991.4 |
| 20260503211830 | 17 | 150 | 4.8 | 9.7 | 0.00 | 0.00 | 0.00 | 45 | 991.4 |
| 20260503211430 | 17 | 140 | 4.8 | 12.9 | 0.00 | 0.00 | 0.00 | 45 | 991.3 |
| 20260503211030 | 17 | 124 | 9.7 | 14.5 | 0.00 | 0.00 | 0.00 | 45 | 991.4 |
| 20260503210628 | 17 | 150 | 6.4 | 19.3 | 0.00 | 0.00 | 0.00 | 45 | 991.4 |
| 20260503210228 | 17 | 154 | 8.0 | 12.9 | 0.00 | 0.00 | 0.00 | 44 | 991.4 |
| 20260503205825 | 17 | 162 | 6.4 | 12.9 | 0.00 | 0.00 | 0.00 | 44 | 991.4 |
| 20260503205025 | 18 | 155 | 8.0 | 14.5 | 0.00 | 0.00 | 0.00 | 44 | 991.5 |
| 20260503204623 | 18 | 140 | 9.7 | 17.7 | 0.00 | 0.00 | 0.00 | 44 | 991.5 |
| 20260503204223 | 18 | 136 | 6.4 | 14.5 | 0.00 | 0.00 | 0.00 | 44 | 991.5 |
| 20260503203822 | 18 | 134 | 8.0 | 16.1 | 0.00 | 0.00 | 0.00 | 44 | 991.5 |
| 20260503203422 | 18 | 137 | 8.0 | 16.1 | 0.00 | 0.00 | 0.00 | 44 | 991.6 |
| 20260503203022 | 18 | 143 | 11.3 | 20.9 | 0.00 | 0.00 | 0.00 | 44 | 991.6 |
| 20260503202210 | 18 | 165 | 4.8 | 9.7 | 0.00 | 0.00 | 0.00 | 43 | 991.6 |
| 20260503201809 | 18 | 154 | 8.0 | 16.1 | 0.00 | 0.00 | 0.00 | 43 | 991.7 |
| 20260503201408 | 18 | 150 | 9.7 | 19.3 | 0.00 | 0.00 | 0.00 | 43 | 991.7 |
| 20260503201008 | 18 | 159 | 6.4 | 12.9 | 0.00 | 0.00 | 0.00 | 43 | 991.7 |
| 20260503200606 | 18 | 166 | 8.0 | 14.5 | 0.00 | 0.00 | 0.00 | 43 | 991.7 |
| 20260503200206 | 18 | 151 | 8.0 | 20.9 | 0.00 | 0.00 | 0.00 | 43 | 991.7 |
| 20260503200040 | 18 | 157 | 8.0 | 17.7 | 0.00 | 0.00 | 0.00 | 43 | 991.8 |
| 20260503195806 | 18 | 157 | 8.0 | 17.7 | 0.00 | 0.00 | 0.00 | 43 | 991.8 |
| 20260503195406 | 18 | 158 | 9.7 | 19.3 | 0.00 | 0.00 | 0.00 | 43 | 991.8 |
| 20260503195006 | 18 | 160 | 6.4 | 14.5 | 0.00 | 0.00 | 0.00 | 43 | 991.8 |
| 20260503194604 | 18 | 143 | 6.4 | 11.3 | 0.00 | 0.00 | 0.00 | 43 | 991.8 |
| 20260503194204 | 18 | 152 | 8.0 | 14.5 | 0.00 | 0.00 | 0.00 | 43 | 991.8 |
| 20260503193804 | 19 | 171 | 9.7 | 17.7 | 0.00 | 0.00 | 0.00 | 42 | 991.8 |
| 20260503193404 | 19 | 152 | 6.4 | 16.1 | 0.00 | 0.00 | 0.00 | 42 | 991.8 |
| 20260503193004 | 19 | 143 | 8.0 | 14.5 | 0.00 | 0.00 | 0.00 | 42 | 991.8 |
| 20260503192602 | 19 | 140 | 6.4 | 14.5 | 0.00 | 0.00 | 0.00 | 42 | 991.8 |
| 20260503192524 | 19 | 152 | 8.0 | 20.9 | 0.00 | 0.00 | 0.00 | 42 | 991.8 |
| 20260503192202 | 19 | 152 | 8.0 | 20.9 | 0.00 | 0.00 | 0.00 | 42 | 991.8 |
| 20260503191802 | 19 | 157 | 6.4 | 14.5 | 0.00 | 0.00 | 0.00 | 42 | 991.8 |
| 20260503191755 | 20 | 152 | 6.4 | 11.3 | 0.00 | 0.00 | 0.00 | 42 | 991.8 |
| 20260503191000 | 20 | 131 | 6.4 | 16.1 | 0.00 | 0.00 | 0.00 | 42 | 991.8 |
| 20260503190558 | 20 | 141 | 6.4 | 11.3 | 0.00 | 0.00 | 0.00 | 42 | 991.7 |
| 20260503190158 | 20 | 134 | 6.4 | 14.5 | 0.00 | 0.00 | 0.00 | 42 | 991.7 |
| 20260503190104 | 20 | 139 | 6.4 | 11.3 | 0.00 | 0.00 | 0.00 | 41 | 991.7 |
| 20260503185758 | 20 | 139 | 6.4 | 11.3 | 0.00 | 0.00 | 0.00 | 41 | 991.7 |
| 20260503185358 | 20 | 136 | 6.4 | 11.3 | 0.00 | 0.00 | 0.00 | 41 | 991.6 |
| 20260503184957 | 20 | 142 | 4.8 | 8.0 | 0.00 | 0.00 | 0.00 | 41 | 991.6 |
| 20260503184555 | 21 | 138 | 4.8 | 12.9 | 0.00 | 0.00 | 0.00 | 40 | 991.6 |
| 20260503184156 | 21 | 126 | 3.2 | 4.8 | 0.00 | 0.00 | 0.00 | 40 | 991.6 |
| 20260503183753 | 21 | 161 | 3.2 | 9.7 | 0.00 | 0.00 | 0.00 | 39 | 991.6 |
| 20260503183353 | 21 | 149 | 4.8 | 11.3 | 0.00 | 0.00 | 0.00 | 39 | 991.5 |
| 20260503182953 | 21 | 160 | 4.8 | 9.7 | 0.00 | 0.00 | 0.00 | 38 | 991.5 |
| 20260503182923 | 21 | 159 | 6.4 | 14.5 | 0.00 | 0.00 | 0.00 | 38 | 991.4 |
| 20260503182551 | 21 | 159 | 6.4 | 14.5 | 0.00 | 0.00 | 0.00 | 38 | 991.4 |
| 20260503182151 | 22 | 153 | 4.8 | 9.7 | 0.00 | 0.00 | 0.00 | 38 | 991.4 |
| 20260503181954 | 22 | 145 | 3.2 | 6.4 | 0.00 | 0.00 | 0.00 | 37 | 991.4 |
| 20260503181751 | 22 | 145 | 3.2 | 6.4 | 0.00 | 0.00 | 0.00 | 37 | 991.4 |
| 20260503181351 | 22 | 151 | 6.4 | 11.3 | 0.00 | 0.00 | 0.00 | 36 | 991.3 |
| 20260503180951 | 23 | 153 | 4.8 | 9.7 | 0.00 | 0.00 | 0.00 | 36 | 991.3 |
| 20260503180549 | 23 | 141 | 3.2 | 9.7 | 0.00 | 0.00 | 0.00 | 35 | 991.3 |
| 20260503180146 | 24 | 150 | 6.4 | 9.7 | 0.00 | 0.00 | 0.00 | 34 | 991.3 |
| 20260503175747 | 24 | 164 | 4.8 | 9.7 | 0.00 | 0.00 | 0.00 | 34 | 991.3 |
| 20260503175339 | 25 | 147 | 6.4 | 12.9 | 0.00 | 0.00 | 0.00 | 33 | 991.2 |
| 20260503174938 | 25 | 139 | 8.0 | 12.9 | 0.00 | 0.00 | 0.00 | 32 | 991.2 |
| 20260503174548 | 27 | 184 | 6.4 | 12.9 | 0.00 | 0.00 | 0.00 | 30 | 991.2 |
| 20260503174535 | 25 | 139 | 9.7 | 19.3 | 0.00 | 0.00 | 0.00 | 32 | 991.2 |
| 20260503174134 | 26 | 142 | 6.4 | 14.5 | 0.00 | 0.00 | 0.00 | 31 | 991.2 |
| 20260503173745 | 27 | 139 | 8.0 | 16.1 | 0.00 | 0.00 | 0.00 | 29 | 991.2 |
| 20260503173334 | 26 | 142 | 8.0 | 14.5 | 0.00 | 0.00 | 0.00 | 30 | 991.3 |
| 20260503172934 | 27 | 184 | 6.4 | 12.9 | 0.00 | 0.00 | 0.00 | 30 | 991.2 |
| 20260503172532 | 27 | 139 | 8.0 | 16.1 | 0.00 | 0.00 | 0.00 | 29 | 991.2 |
| 20260503172132 | 27 | 169 | 6.4 | 20.9 | 0.00 | 0.00 | 0.00 | 29 | 991.2 |
| 20260503171732 | 27 | 152 | 9.7 | 17.7 | 0.00 | 0.00 | 0.00 | 29 | 991.2 |
| 20260503170932 | 27 | 151 | 8.0 | 12.9 | 0.00 | 0.00 | 0.00 | 29 | 991.2 |
| 20260503170530 | 27 | 153 | 8.0 | 17.7 | 0.00 | 0.00 | 0.00 | 29 | 991.2 |
| 20260503170130 | 27 | 161 | 8.0 | 19.3 | 0.00 | 0.00 | 0.00 | 29 | 991.2 |
| 20260503160120 | 28 | 150 | 12.9 | 22.5 | 0.00 | 0.00 | 0.00 | 27 | 991.3 |
| 20260503150904 | 28 | 134 | 14.5 | 24.1 | 0.00 | 0.00 | 0.00 | 29 | 991.5 |
| 20260503150502 | 28 | 130 | 11.3 | 19.3 | 0.00 | 0.00 | 0.00 | 29 | 991.5 |
| 20260503131247 | 22 | 146 | 11.3 | 17.7 | 0.00 | 0.00 | 0.00 | 36 | 992.6 |
| 20260503130847 | 22 | 139 | 9.7 | 16.1 | 0.00 | 0.00 | 0.00 | 36 | 992.6 |
| 20260503130444 | 22 | 201 | 8.0 | 16.1 | 0.00 | 0.00 | 0.00 | 36 | 992.7 |
| 20260503110823 | 21 | 188 | 4.8 | 9.7 | 0.00 | 0.00 | 0.00 | 39 | 993.5 |
| 20260503110421 | 21 | 168 | 6.4 | 12.9 | 0.00 | 0.00 | 0.00 | 38 | 993.5 |